Volver al catálogo

COSMOS 1937

ActivoNavegaciónLEO
NORAD 19038·PAYLOAD·🇷🇺 Russia

Lanzado Apr 5, 1988 desde Plesetsk Cosmodrome

Loading…

Próximos Pases (próximas 24 horas)

TLE

ActualizadoSource: Space-Track

Época: Sep 14, 2026, 21:46 UTC

1 19038U 88029A   26257.90716517  .00000069  00000-0  32572-4 0  9994
2 19038  74.0452 299.9744 0023937   0.7647 177.4293 14.36167543 12610

Sigue COSMOS 1937 en tiempo real con AllMySat

Download on the App Store